Location: *
(58.7167°N, 26.1833°E)
Time: 19:23:55
(UTC+00:00)

COSMOS 2406 - Pass Details

Date: 25 August 2019
Orbit: 842 x 865 km, 71.0° (Epoch: 14 October)

Event Time Altitude Azimuth Distance (km) Brightness Sun altitude
Rises 18:33:43 0° 200° (SSW) 3,400 6.2 -7.3°
Reaches altitude 10° 18:36:10 10° 197° (SSW) 2,472 5.5 -7.6°
Maximum altitude 18:41:44 60° 119° (ESE) 974 3.3 -8.2°
Drops below altitude 10° 18:47:23 10° 41° (NE) 2,503 5.6 -8.8°
Sets 18:49:53 0° 38° (NE) 3,446 6.4 -9.0°
